User: anonymous   Login
Location: Radford
(37.1320°N, 80.5770°W)
Time: 08:05:06
(UTC-04:00)
Language:

Okean 1-7 - Orbit

View from above orbital plane
View from above orbital plane
View from above satellite
View from above satellite

Ground track
Ground track

The orbit data is extracted from the following two-line orbital elements,

1 23317U 94066A   16237.17632367  .00000255  00000-0  25517-4 0  9991
2 23317  82.5368  37.5760 0019143 334.6970  25.3307 14.87229403181794
Epoch (UTC): 24 August 2016 04:13:54
Eccentricity: 0.0019143
inclination: 82.5368°
perigee height: 593 km
apogee height: 620 km
right ascension of ascending node: 37.5760°
argument of perigee: 334.6970°
revolutions per day: 14.87229403
mean anomaly at epoch: 25.3307°
orbit number at epoch: 18179

The dashed part of the orbit path shows where the satellite is in the earth's shadow,  

DLR